owner,sensor,date,latitude,longitude,vertical_datum,sea_water_practical_salinity,qcFlag 
SCCF RECON,ioos:station:SCCF:18:1,2013-02-01T00:00:00Z,26.6955,-81.8138,1.652,7.91,1111122 
SCCF RECON,ioos:station:SCCF:18:1,2013-02-01T01:00:00Z,26.6955,-81.8138,1.62,7.63,1111122 
SCCF RECON,ioos:station:SCCF:18:1,2013-02-01T02:00:00Z,26.6955,-81.8138,1.56,7.54,1111122 
SCCF RECON,ioos:station:SCCF:18:1,2013-02-01T03:00:00Z,26.6955,-81.8138,1.51,7.17,1111122 
SCCF RECON,ioos:station:SCCF:18:1,2013-02-01T04:00:00Z,26.6955,-81.8138,1.47,7.03,1111122 
SCCF RECON,ioos:station:SCCF:18:1,2013-02-01T05:00:00Z,26.6955,-81.8138,1.43,6.96,1111122 
SCCF RECON,ioos:station:SCCF:18:1,2013-02-01T06:00:00Z,26.6955,-81.8138,1.39,7.02,1111122 
SCCF RECON,ioos:station:SCCF:18:1,2013-02-01T07:00:00Z,26.6955,-81.8138,1.36,6.97,1111122 
SCCF RECON,ioos:station:SCCF:18:1,2013-02-01T08:00:00Z,26.6955,-81.8138,1.36,7.01,1111122 
SCCF RECON,ioos:station:SCCF:18:1,2013-02-01T09:00:00Z,26.6955,-81.8138,1.41,7.35,1111122 
SCCF RECON,ioos:station:SCCF:18:1,2013-02-01T10:00:00Z,26.6955,-81.8138,1.45,7.48,1111122 
SCCF RECON,ioos:station:SCCF:18:1,2013-02-01T11:00:00Z,26.6955,-81.8138,1.48,7.44,1111122 
SCCF RECON,ioos:station:SCCF:18:1,2013-02-01T12:00:00Z,26.6955,-81.8138,1.49,7.41,1111122 
SCCF RECON,ioos:station:SCCF:18:1,2013-02-01T13:00:00Z,26.6955,-81.8138,1.462,7.26,1111122 
SCCF RECON,ioos:station:SCCF:18:1,2013-02-01T14:00:00Z,26.6955,-81.8138,1.41,6.97,1111122 
SCCF RECON,ioos:station:SCCF:18:1,2013-02-01T15:00:00Z,26.6955,-81.8138,1.36,6.84,1111122 
SCCF RECON,ioos:station:SCCF:18:1,2013-02-01T16:00:00Z,26.6955,-81.8138,1.328,6.88,1111122 
SCCF RECON,ioos:station:SCCF:18:1,2013-02-01T17:00:00Z,26.6955,-81.8138,1.3,6.9,1111122 
SCCF RECON,ioos:station:SCCF:18:1,2013-02-01T18:00:00Z,26.6955,-81.8138,1.26,6.86,1111122 
SCCF RECON,ioos:station:SCCF:18:1,2013-02-01T19:00:00Z,26.6955,-81.8138,1.23,6.96,1111122 
SCCF RECON,ioos:station:SCCF:18:1,2013-02-01T20:00:00Z,26.6955,-81.8138,1.24,6.98,1111122 
SCCF RECON,ioos:station:SCCF:18:1,2013-02-01T21:00:00Z,26.6955,-81.8138,1.306,7.09,1111122 
SCCF RECON,ioos:station:SCCF:18:1,2013-02-01T22:00:00Z,26.6955,-81.8138,1.38,6.97,1111122 
SCCF RECON,ioos:station:SCCF:18:1,2013-02-01T23:00:00Z,26.6955,-81.8138,1.438,7.07,1111122 
SCCF RECON,ioos:station:SCCF:18:1,2013-02-02T00:00:00Z,26.6955,-81.8138,1.49,7.45,1111122 
SCCF RECON,ioos:station:SCCF:18:1,2013-02-02T01:00:00Z,26.6955,-81.8138,1.54,7.19,1111122 
SCCF RECON,ioos:station:SCCF:18:1,2013-02-02T02:00:00Z,26.6955,-81.8138,1.54,7.05,1111122 
SCCF RECON,ioos:station:SCCF:18:1,2013-02-02T03:00:00Z,26.6955,-81.8138,1.49,6.85,1111122 
SCCF RECON,ioos:station:SCCF:18:1,2013-02-02T04:00:00Z,26.6955,-81.8138,1.44,6.78,1111122 
SCCF RECON,ioos:station:SCCF:18:1,2013-02-02T05:00:00Z,26.6955,-81.8138,1.4,6.69,1111122 
SCCF RECON,ioos:station:SCCF:18:1,2013-02-02T06:00:00Z,26.6955,-81.8138,1.37,6.8,1111122 
SCCF RECON,ioos:station:SCCF:18:1,2013-02-02T07:00:00Z,26.6955,-81.8138,1.34,6.75,1111122 
SCCF RECON,ioos:station:SCCF:18:1,2013-02-02T08:00:00Z,26.6955,-81.8138,1.31,6.72,1111122 
SCCF RECON,ioos:station:SCCF:18:1,2013-02-02T09:00:00Z,26.6955,-81.8138,1.34,6.62,1111122 
SCCF RECON,ioos:station:SCCF:18:1,2013-02-02T10:00:00Z,26.6955,-81.8138,1.38,6.88,1111122 
SCCF RECON,ioos:station:SCCF:18:1,2013-02-02T11:00:00Z,26.6955,-81.8138,1.43,6.69,1111122 
SCCF RECON,ioos:station:SCCF:18:1,2013-02-02T12:00:00Z,26.6955,-81.8138,1.46,6.72,1111122 
SCCF RECON,ioos:station:SCCF:18:1,2013-02-02T13:00:00Z,26.6955,-81.8138,1.48,6.79,1111122 
SCCF RECON,ioos:station:SCCF:18:1,2013-02-02T14:00:00Z,26.6955,-81.8138,1.471,6.71,1111122 
SCCF RECON,ioos:station:SCCF:18:1,2013-02-02T15:00:00Z,26.6955,-81.8138,1.45,6.69,1111122 
SCCF RECON,ioos:station:SCCF:18:1,2013-02-02T16:00:00Z,26.6955,-81.8138,1.401,6.48,1111122 
SCCF RECON,ioos:station:SCCF:18:1,2013-02-02T17:00:00Z,26.6955,-81.8138,1.36,6.44,1111122 
SCCF RECON,ioos:station:SCCF:18:1,2013-02-02T18:00:00Z,26.6955,-81.8138,1.34,6.43,1111122 
SCCF RECON,ioos:station:SCCF:18:1,2013-02-02T19:00:00Z,26.6955,-81.8138,1.35,6.26,1111122 
SCCF RECON,ioos:station:SCCF:18:1,2013-02-02T20:00:00Z,26.6955,-81.8138,1.42,6.54,1111122 
SCCF RECON,ioos:station:SCCF:18:1,2013-02-02T21:00:00Z,26.6955,-81.8138,1.5,6.55,1111122 
SCCF RECON,ioos:station:SCCF:18:1,2013-02-02T22:00:00Z,26.6955,-81.8138,1.56,6.64,1111122 
SCCF RECON,ioos:station:SCCF:18:1,2013-02-02T23:00:00Z,26.6955,-81.8138,1.62,6.77,1111122 
SCCF RECON,ioos:station:SCCF:18:1,2013-02-03T00:00:00Z,26.6955,-81.8138,1.69,6.77,1111122 
SCCF RECON,ioos:station:SCCF:18:1,2013-02-03T01:00:00Z,26.6955,-81.8138,1.76,6.88,1111122 
SCCF RECON,ioos:station:SCCF:18:1,2013-02-03T02:00:00Z,26.6955,-81.8138,1.79,6.66,1111122 
SCCF RECON,ioos:station:SCCF:18:1,2013-02-03T03:00:00Z,26.6955,-81.8138,1.76,6.6,1111122 
SCCF RECON,ioos:station:SCCF:18:1,2013-02-03T04:00:00Z,26.6955,-81.8138,1.69,6.25,1111122 
SCCF RECON,ioos:station:SCCF:18:1,2013-02-03T05:00:00Z,26.6955,-81.8138,1.62,6.23,1111122 
SCCF RECON,ioos:station:SCCF:18:1,2013-02-03T06:00:00Z,26.6955,-81.8138,1.57,6.18,1111122 
SCCF RECON,ioos:station:SCCF:18:1,2013-02-03T07:00:00Z,26.6955,-81.8138,1.53,5.82,1111122 
SCCF RECON,ioos:station:SCCF:18:1,2013-02-03T08:00:00Z,26.6955,-81.8138,1.48,5.7,1111122 
SCCF RECON,ioos:station:SCCF:18:1,2013-02-03T09:00:00Z,26.6955,-81.8138,1.45,5.52,1111122 
SCCF RECON,ioos:station:SCCF:18:1,2013-02-03T10:00:00Z,26.6955,-81.8138,1.44,5.25,1111122 
SCCF RECON,ioos:station:SCCF:18:1,2013-02-03T11:00:00Z,26.6955,-81.8138,1.49,5.2,1111122 
SCCF RECON,ioos:station:SCCF:18:1,2013-02-03T12:00:00Z,26.6955,-81.8138,1.53,5.11,1111122 
SCCF RECON,ioos:station:SCCF:18:1,2013-02-03T13:00:00Z,26.6955,-81.8138,1.58,5.18,1111122 
SCCF RECON,ioos:station:SCCF:18:1,2013-02-03T14:00:00Z,26.6955,-81.8138,1.59,5.29,1111122 
SCCF RECON,ioos:station:SCCF:18:1,2013-02-03T15:00:00Z,26.6955,-81.8138,1.597,5.18,1111122 
SCCF RECON,ioos:station:SCCF:18:1,2013-02-03T16:00:00Z,26.6955,-81.8138,1.57,5.23,1111122 
SCCF RECON,ioos:station:SCCF:18:1,2013-02-03T17:00:00Z,26.6955,-81.8138,1.51,5.14,1111122 
SCCF RECON,ioos:station:SCCF:18:1,2013-02-03T18:00:00Z,26.6955,-81.8138,1.468,5.05,1111122 
SCCF RECON,ioos:station:SCCF:18:1,2013-02-03T19:00:00Z,26.6955,-81.8138,1.43,4.68,1111122 
SCCF RECON,ioos:station:SCCF:18:1,2013-02-03T20:00:00Z,26.6955,-81.8138,1.418,4.5,1111122 
SCCF RECON,ioos:station:SCCF:18:1,2013-02-03T21:00:00Z,26.6955,-81.8138,1.413,4.49,1111122 
SCCF RECON,ioos:station:SCCF:18:1,2013-02-03T22:00:00Z,26.6955,-81.8138,1.49,5.03,1111122 
SCCF RECON,ioos:station:SCCF:18:1,2013-02-03T23:00:00Z,26.6955,-81.8138,1.6,5.85,1111122 
SCCF RECON,ioos:station:SCCF:18:1,2013-02-04T00:00:00Z,26.6955,-81.8138,1.676,5.6,1111122 
SCCF RECON,ioos:station:SCCF:18:1,2013-02-04T01:00:00Z,26.6955,-81.8138,1.72,5.63,1111122 
SCCF RECON,ioos:station:SCCF:18:1,2013-02-04T02:00:00Z,26.6955,-81.8138,1.75,5.57,1111122 
SCCF RECON,ioos:station:SCCF:18:1,2013-02-04T03:00:00Z,26.6955,-81.8138,1.75,5.57,1111122 
SCCF RECON,ioos:station:SCCF:18:1,2013-02-04T04:00:00Z,26.6955,-81.8138,1.71,5.38,1111122 
SCCF RECON,ioos:station:SCCF:18:1,2013-02-04T05:00:00Z,26.6955,-81.8138,1.64,4.67,1111122 
SCCF RECON,ioos:station:SCCF:18:1,2013-02-04T06:00:00Z,26.6955,-81.8138,1.58,4.69,1111122 
SCCF RECON,ioos:station:SCCF:18:1,2013-02-04T07:00:00Z,26.6955,-81.8138,1.53,4.49,1111122 
SCCF RECON,ioos:station:SCCF:18:1,2013-02-04T08:00:00Z,26.6955,-81.8138,1.49,4.32,1111122 
SCCF RECON,ioos:station:SCCF:18:1,2013-02-04T09:00:00Z,26.6955,-81.8138,1.43,4.21,1111122 
SCCF RECON,ioos:station:SCCF:18:1,2013-02-04T10:00:00Z,26.6955,-81.8138,1.39,4.14,1111122 
SCCF RECON,ioos:station:SCCF:18:1,2013-02-04T11:00:00Z,26.6955,-81.8138,1.38,3.94,1111122 
SCCF RECON,ioos:station:SCCF:18:1,2013-02-04T12:00:00Z,26.6955,-81.8138,1.422,3.87,1111122 
SCCF RECON,ioos:station:SCCF:18:1,2013-02-04T13:00:00Z,26.6955,-81.8138,1.48,4.28,1111122 
SCCF RECON,ioos:station:SCCF:18:1,2013-02-04T14:00:00Z,26.6955,-81.8138,1.53,4.04,1111122 
SCCF RECON,ioos:station:SCCF:18:1,2013-02-04T15:00:00Z,26.6955,-81.8138,1.56,3.88,1111122 
SCCF RECON,ioos:station:SCCF:18:1,2013-02-04T16:00:00Z,26.6955,-81.8138,1.57,3.88,1111122 
SCCF RECON,ioos:station:SCCF:18:1,2013-02-04T17:00:00Z,26.6955,-81.8138,1.58,3.87,1111122 
SCCF RECON,ioos:station:SCCF:18:1,2013-02-04T18:00:00Z,26.6955,-81.8138,1.58,3.96,1111122 
SCCF RECON,ioos:station:SCCF:18:1,2013-02-04T19:00:00Z,26.6955,-81.8138,1.55,3.94,1111122 
SCCF RECON,ioos:station:SCCF:18:1,2013-02-04T20:00:00Z,26.6955,-81.8138,1.53,3.92,1111122 
SCCF RECON,ioos:station:SCCF:18:1,2013-02-04T21:00:00Z,26.6955,-81.8138,1.54,3.92,1111122 
SCCF RECON,ioos:station:SCCF:18:1,2013-02-04T22:00:00Z,26.6955,-81.8138,1.6,3.97,1111122 
SCCF RECON,ioos:station:SCCF:18:1,2013-02-04T23:00:00Z,26.6955,-81.8138,1.67,4.26,1111122 
SCCF RECON,ioos:station:SCCF:18:1,2013-02-05T00:00:00Z,26.6955,-81.8138,1.74,4.78,1111122 
SCCF RECON,ioos:station:SCCF:18:1,2013-02-05T01:00:00Z,26.6955,-81.8138,1.78,4.48,1111122 
SCCF RECON,ioos:station:SCCF:18:1,2013-02-05T02:00:00Z,26.6955,-81.8138,1.82,4.78,1111122 
SCCF RECON,ioos:station:SCCF:18:1,2013-02-05T03:00:00Z,26.6955,-81.8138,1.86,5.0,1111122 
SCCF RECON,ioos:station:SCCF:18:1,2013-02-05T04:00:00Z,26.6955,-81.8138,1.86,4.59,1111122 
SCCF RECON,ioos:station:SCCF:18:1,2013-02-05T05:00:00Z,26.6955,-81.8138,1.78,3.99,1111122 
SCCF RECON,ioos:station:SCCF:18:1,2013-02-05T06:00:00Z,26.6955,-81.8138,1.7,4.06,1111122 
SCCF RECON,ioos:station:SCCF:18:1,2013-02-05T07:00:00Z,26.6955,-81.8138,1.636,4.04,1111122 
SCCF RECON,ioos:station:SCCF:18:1,2013-02-05T08:00:00Z,26.6955,-81.8138,1.596,3.83,1111122 
SCCF RECON,ioos:station:SCCF:18:1,2013-02-05T09:00:00Z,26.6955,-81.8138,1.54,3.7,1111122 
SCCF RECON,ioos:station:SCCF:18:1,2013-02-05T10:00:00Z,26.6955,-81.8138,1.48,3.66,1111122 
SCCF RECON,ioos:station:SCCF:18:1,2013-02-05T11:00:00Z,26.6955,-81.8138,1.43,3.62,1111122 
SCCF RECON,ioos:station:SCCF:18:1,2013-02-05T12:00:00Z,26.6955,-81.8138,1.4,3.59,1111122 
SCCF RECON,ioos:station:SCCF:18:1,2013-02-05T13:00:00Z,26.6955,-81.8138,1.4,3.55,1111122 
SCCF RECON,ioos:station:SCCF:18:1,2013-02-05T14:00:00Z,26.6955,-81.8138,1.43,3.57,1111122 
SCCF RECON,ioos:station:SCCF:18:1,2013-02-05T15:00:00Z,26.6955,-81.8138,1.5,3.82,1111122 
SCCF RECON,ioos:station:SCCF:18:1,2013-02-05T16:00:00Z,26.6955,-81.8138,1.56,3.9,1111122 
SCCF RECON,ioos:station:SCCF:18:1,2013-02-05T17:00:00Z,26.6955,-81.8138,1.61,3.72,1111122 
SCCF RECON,ioos:station:SCCF:18:1,2013-02-05T18:00:00Z,26.6955,-81.8138,1.64,4.22,1111122 
SCCF RECON,ioos:station:SCCF:18:1,2013-02-05T19:00:00Z,26.6955,-81.8138,1.66,4.24,1111122 
SCCF RECON,ioos:station:SCCF:18:1,2013-02-05T20:00:00Z,26.6955,-81.8138,1.67,3.91,1111122 
SCCF RECON,ioos:station:SCCF:18:1,2013-02-05T21:00:00Z,26.6955,-81.8138,1.669,3.91,1111122 
SCCF RECON,ioos:station:SCCF:18:1,2013-02-05T22:00:00Z,26.6955,-81.8138,1.693,4.16,1111122 
SCCF RECON,ioos:station:SCCF:18:1,2013-02-05T23:00:00Z,26.6955,-81.8138,1.74,4.1,1111122 
SCCF RECON,ioos:station:SCCF:18:1,2013-02-06T00:00:00Z,26.6955,-81.8138,1.8,4.55,1111122 
SCCF RECON,ioos:station:SCCF:18:1,2013-02-06T01:00:00Z,26.6955,-81.8138,1.84,4.55,1111122 
SCCF RECON,ioos:station:SCCF:18:1,2013-02-06T02:00:00Z,26.6955,-81.8138,1.89,4.79,1111122 
SCCF RECON,ioos:station:SCCF:18:1,2013-02-06T03:00:00Z,26.6955,-81.8138,1.93,4.98,1111122 
SCCF RECON,ioos:station:SCCF:18:1,2013-02-06T04:00:00Z,26.6955,-81.8138,1.96,4.84,1111122 
SCCF RECON,ioos:station:SCCF:18:1,2013-02-06T05:00:00Z,26.6955,-81.8138,1.94,4.49,1111122 
SCCF RECON,ioos:station:SCCF:18:1,2013-02-06T06:00:00Z,26.6955,-81.8138,1.86,3.73,1111122 
SCCF RECON,ioos:station:SCCF:18:1,2013-02-06T07:00:00Z,26.6955,-81.8138,1.79,3.71,1111122 
SCCF RECON,ioos:station:SCCF:18:1,2013-02-06T08:00:00Z,26.6955,-81.8138,1.73,4.03,1111122 
SCCF RECON,ioos:station:SCCF:18:1,2013-02-06T09:00:00Z,26.6955,-81.8138,1.68,3.77,1111122 
SCCF RECON,ioos:station:SCCF:18:1,2013-02-06T10:00:00Z,26.6955,-81.8138,1.616,3.56,1111122 
SCCF RECON,ioos:station:SCCF:18:1,2013-02-06T11:00:00Z,26.6955,-81.8138,1.55,3.55,1111122 
SCCF RECON,ioos:station:SCCF:18:1,2013-02-06T12:00:00Z,26.6955,-81.8138,1.51,3.54,1111122 
SCCF RECON,ioos:station:SCCF:18:1,2013-02-06T13:00:00Z,26.6955,-81.8138,1.47,3.56,1111122 
SCCF RECON,ioos:station:SCCF:18:1,2013-02-06T14:00:00Z,26.6955,-81.8138,1.46,3.44,1111122 
SCCF RECON,ioos:station:SCCF:18:1,2013-02-06T15:00:00Z,26.6955,-81.8138,1.48,3.55,1111122 
SCCF RECON,ioos:station:SCCF:18:1,2013-02-06T16:00:00Z,26.6955,-81.8138,1.55,3.88,1111122 
SCCF RECON,ioos:station:SCCF:18:1,2013-02-06T17:00:00Z,26.6955,-81.8138,1.62,3.88,1111122 
SCCF RECON,ioos:station:SCCF:18:1,2013-02-06T18:00:00Z,26.6955,-81.8138,1.669,3.75,1111122 
SCCF RECON,ioos:station:SCCF:18:1,2013-02-06T19:00:00Z,26.6955,-81.8138,1.69,4.05,1111122 
SCCF RECON,ioos:station:SCCF:18:1,2013-02-06T20:00:00Z,26.6955,-81.8138,1.707,4.08,1111122 
SCCF RECON,ioos:station:SCCF:18:1,2013-02-06T21:00:00Z,26.6955,-81.8138,1.7,4.25,1111122 
SCCF RECON,ioos:station:SCCF:18:1,2013-02-06T22:00:00Z,26.6955,-81.8138,1.69,4.11,1111122 
SCCF RECON,ioos:station:SCCF:18:1,2013-02-06T23:00:00Z,26.6955,-81.8138,1.66,3.79,1111122 
SCCF RECON,ioos:station:SCCF:18:1,2013-02-07T00:00:00Z,26.6955,-81.8138,1.66,3.69,1111122 
SCCF RECON,ioos:station:SCCF:18:1,2013-02-07T01:00:00Z,26.6955,-81.8138,1.73,3.99,1111122 
SCCF RECON,ioos:station:SCCF:18:1,2013-02-07T02:00:00Z,26.6955,-81.8138,1.81,4.6,1111122 
SCCF RECON,ioos:station:SCCF:18:1,2013-02-07T03:00:00Z,26.6955,-81.8138,1.87,4.77,1111122 
SCCF RECON,ioos:station:SCCF:18:1,2013-02-07T04:00:00Z,26.6955,-81.8138,1.908,4.8,1111122 
SCCF RECON,ioos:station:SCCF:18:1,2013-02-07T05:00:00Z,26.6955,-81.8138,1.94,4.89,1111122 
SCCF RECON,ioos:station:SCCF:18:1,2013-02-07T06:00:00Z,26.6955,-81.8138,1.96,5.24,1111122 
SCCF RECON,ioos:station:SCCF:18:1,2013-02-07T07:00:00Z,26.6955,-81.8138,1.9,4.08,1111122 
SCCF RECON,ioos:station:SCCF:18:1,2013-02-07T08:00:00Z,26.6955,-81.8138,1.8,3.73,1111122 
SCCF RECON,ioos:station:SCCF:18:1,2013-02-07T09:00:00Z,26.6955,-81.8138,1.72,4.31,1111122 
SCCF RECON,ioos:station:SCCF:18:1,2013-02-07T10:00:00Z,26.6955,-81.8138,1.67,3.94,1111122 
SCCF RECON,ioos:station:SCCF:18:1,2013-02-07T11:00:00Z,26.6955,-81.8138,1.614,3.62,1111122 
SCCF RECON,ioos:station:SCCF:18:1,2013-02-07T12:00:00Z,26.6955,-81.8138,1.56,3.64,1111122 
SCCF RECON,ioos:station:SCCF:18:1,2013-02-07T13:00:00Z,26.6955,-81.8138,1.5,3.55,1111122 
SCCF RECON,ioos:station:SCCF:18:1,2013-02-07T14:00:00Z,26.6955,-81.8138,1.46,3.58,1111122 
SCCF RECON,ioos:station:SCCF:18:1,2013-02-07T15:00:00Z,26.6955,-81.8138,1.45,3.63,1111122 
SCCF RECON,ioos:station:SCCF:18:1,2013-02-07T16:00:00Z,26.6955,-81.8138,1.48,3.68,1111122 
SCCF RECON,ioos:station:SCCF:18:1,2013-02-07T17:00:00Z,26.6955,-81.8138,1.56,3.95,1111122 
SCCF RECON,ioos:station:SCCF:18:1,2013-02-07T18:00:00Z,26.6955,-81.8138,1.625,4.17,1111122 
SCCF RECON,ioos:station:SCCF:18:1,2013-02-07T19:00:00Z,26.6955,-81.8138,1.68,4.11,1111122 
SCCF RECON,ioos:station:SCCF:18:1,2013-02-07T20:00:00Z,26.6955,-81.8138,1.733,4.63,1111122 
SCCF RECON,ioos:station:SCCF:18:1,2013-02-07T21:00:00Z,26.6955,-81.8138,1.768,4.73,1111122 
SCCF RECON,ioos:station:SCCF:18:1,2013-02-07T22:00:00Z,26.6955,-81.8138,1.75,4.72,1111122 
SCCF RECON,ioos:station:SCCF:18:1,2013-02-07T23:00:00Z,26.6955,-81.8138,1.698,4.24,1111122 
SCCF RECON,ioos:station:SCCF:18:1,2013-02-08T00:00:00Z,26.6955,-81.8138,1.65,4.11,1111122 
SCCF RECON,ioos:station:SCCF:18:1,2013-02-08T01:00:00Z,26.6955,-81.8138,1.64,4.34,1111122 
SCCF RECON,ioos:station:SCCF:18:1,2013-02-08T02:00:00Z,26.6955,-81.8138,1.715,4.42,1111122 
SCCF RECON,ioos:station:SCCF:18:1,2013-02-08T03:00:00Z,26.6955,-81.8138,1.801,4.8,1111122 
SCCF RECON,ioos:station:SCCF:18:1,2013-02-08T04:00:00Z,26.6955,-81.8138,1.88,5.26,1111122 
SCCF RECON,ioos:station:SCCF:18:1,2013-02-08T05:00:00Z,26.6955,-81.8138,1.927,5.36,1111122 
SCCF RECON,ioos:station:SCCF:18:1,2013-02-08T06:00:00Z,26.6955,-81.8138,1.98,5.57,1111122 
SCCF RECON,ioos:station:SCCF:18:1,2013-02-08T07:00:00Z,26.6955,-81.8138,1.991,5.96,1111122 
SCCF RECON,ioos:station:SCCF:18:1,2013-02-08T08:00:00Z,26.6955,-81.8138,1.94,5.89,1111122 
SCCF RECON,ioos:station:SCCF:18:1,2013-02-08T09:00:00Z,26.6955,-81.8138,1.858,4.98,1111122 
SCCF RECON,ioos:station:SCCF:18:1,2013-02-08T10:00:00Z,26.6955,-81.8138,1.78,4.6,1111122 
SCCF RECON,ioos:station:SCCF:18:1,2013-02-08T11:00:00Z,26.6955,-81.8138,1.73,4.32,1111122 
SCCF RECON,ioos:station:SCCF:18:1,2013-02-08T12:00:00Z,26.6955,-81.8138,1.69,4.18,1111122 
SCCF RECON,ioos:station:SCCF:18:1,2013-02-08T13:00:00Z,26.6955,-81.8138,1.63,4.09,1111122 
SCCF RECON,ioos:station:SCCF:18:1,2013-02-08T14:00:00Z,26.6955,-81.8138,1.57,4.02,1111122 
SCCF RECON,ioos:station:SCCF:18:1,2013-02-08T15:00:00Z,26.6955,-81.8138,1.53,4.1,1111122 
SCCF RECON,ioos:station:SCCF:18:1,2013-02-08T16:00:00Z,26.6955,-81.8138,1.53,3.78,1111122 
SCCF RECON,ioos:station:SCCF:18:1,2013-02-08T17:00:00Z,26.6955,-81.8138,1.57,3.91,1111122 
SCCF RECON,ioos:station:SCCF:18:1,2013-02-08T18:00:00Z,26.6955,-81.8138,1.65,4.25,1111122 
SCCF RECON,ioos:station:SCCF:18:1,2013-02-08T19:00:00Z,26.6955,-81.8138,1.71,4.23,1111122 
SCCF RECON,ioos:station:SCCF:18:1,2013-02-08T20:00:00Z,26.6955,-81.8138,1.74,4.3,1111122 
SCCF RECON,ioos:station:SCCF:18:1,2013-02-08T21:00:00Z,26.6955,-81.8138,1.748,4.23,1111122 
SCCF RECON,ioos:station:SCCF:18:1,2013-02-08T22:00:00Z,26.6955,-81.8138,1.71,3.98,1111122 
SCCF RECON,ioos:station:SCCF:18:1,2013-02-08T23:00:00Z,26.6955,-81.8138,1.65,3.73,1111122 
SCCF RECON,ioos:station:SCCF:18:1,2013-02-09T00:00:00Z,26.6955,-81.8138,1.6,3.87,1111122 
SCCF RECON,ioos:station:SCCF:18:1,2013-02-09T01:00:00Z,26.6955,-81.8138,1.57,3.92,1111122 
SCCF RECON,ioos:station:SCCF:18:1,2013-02-09T02:00:00Z,26.6955,-81.8138,1.56,3.81,1111122 
SCCF RECON,ioos:station:SCCF:18:1,2013-02-09T03:00:00Z,26.6955,-81.8138,1.618,3.9,1111122 
SCCF RECON,ioos:station:SCCF:18:1,2013-02-09T04:00:00Z,26.6955,-81.8138,1.7,4.06,1111122 
SCCF RECON,ioos:station:SCCF:18:1,2013-02-09T05:00:00Z,26.6955,-81.8138,1.77,4.11,1111122 
SCCF RECON,ioos:station:SCCF:18:1,2013-02-09T06:00:00Z,26.6955,-81.8138,1.81,4.01,1111122 
SCCF RECON,ioos:station:SCCF:18:1,2013-02-09T07:00:00Z,26.6955,-81.8138,1.84,4.0,1111122 
SCCF RECON,ioos:station:SCCF:18:1,2013-02-09T08:00:00Z,26.6955,-81.8138,1.81,3.87,1111122 
SCCF RECON,ioos:station:SCCF:18:1,2013-02-09T09:00:00Z,26.6955,-81.8138,1.74,3.74,1111122 
SCCF RECON,ioos:station:SCCF:18:1,2013-02-09T10:00:00Z,26.6955,-81.8138,1.67,3.76,1111122 
SCCF RECON,ioos:station:SCCF:18:1,2013-02-09T11:00:00Z,26.6955,-81.8138,1.62,3.64,1111122 
SCCF RECON,ioos:station:SCCF:18:1,2013-02-09T12:00:00Z,26.6955,-81.8138,1.58,3.55,1111122 
SCCF RECON,ioos:station:SCCF:18:1,2013-02-09T13:00:00Z,26.6955,-81.8138,1.521,3.57,1111122 
SCCF RECON,ioos:station:SCCF:18:1,2013-02-09T14:00:00Z,26.6955,-81.8138,1.47,3.47,1111122 
SCCF RECON,ioos:station:SCCF:18:1,2013-02-09T15:00:00Z,26.6955,-81.8138,1.41,3.33,1111122 
SCCF RECON,ioos:station:SCCF:18:1,2013-02-09T16:00:00Z,26.6955,-81.8138,1.353,3.04,1111122 
SCCF RECON,ioos:station:SCCF:18:1,2013-02-09T17:00:00Z,26.6955,-81.8138,1.34,2.84,1111122 
SCCF RECON,ioos:station:SCCF:18:1,2013-02-09T18:00:00Z,26.6955,-81.8138,1.373,2.97,1111122 
SCCF RECON,ioos:station:SCCF:18:1,2013-02-09T19:00:00Z,26.6955,-81.8138,1.44,3.27,1111122 
SCCF RECON,ioos:station:SCCF:18:1,2013-02-09T20:00:00Z,26.6955,-81.8138,1.51,3.13,1111122 
SCCF RECON,ioos:station:SCCF:18:1,2013-02-09T21:00:00Z,26.6955,-81.8138,1.56,3.18,1111122 
SCCF RECON,ioos:station:SCCF:18:1,2013-02-09T22:00:00Z,26.6955,-81.8138,1.58,3.29,1111122 
SCCF RECON,ioos:station:SCCF:18:1,2013-02-09T23:00:00Z,26.6955,-81.8138,1.56,3.23,1111122 
SCCF RECON,ioos:station:SCCF:18:1,2013-02-10T00:00:00Z,26.6955,-81.8138,1.51,2.88,1111122 
SCCF RECON,ioos:station:SCCF:18:1,2013-02-10T01:00:00Z,26.6955,-81.8138,1.47,2.85,1111122 
SCCF RECON,ioos:station:SCCF:18:1,2013-02-10T02:00:00Z,26.6955,-81.8138,1.44,2.72,1111122 
SCCF RECON,ioos:station:SCCF:18:1,2013-02-10T03:00:00Z,26.6955,-81.8138,1.46,2.71,1111122 
SCCF RECON,ioos:station:SCCF:18:1,2013-02-10T04:00:00Z,26.6955,-81.8138,1.55,3.51,1111122 
SCCF RECON,ioos:station:SCCF:18:1,2013-02-10T05:00:00Z,26.6955,-81.8138,1.65,3.38,1111122 
SCCF RECON,ioos:station:SCCF:18:1,2013-02-10T06:00:00Z,26.6955,-81.8138,1.718,3.22,1111122 
SCCF RECON,ioos:station:SCCF:18:1,2013-02-10T07:00:00Z,26.6955,-81.8138,1.769,3.58,1111122 
SCCF RECON,ioos:station:SCCF:18:1,2013-02-10T08:00:00Z,26.6955,-81.8138,1.82,3.69,1111122 
SCCF RECON,ioos:station:SCCF:18:1,2013-02-10T09:00:00Z,26.6955,-81.8138,1.84,3.4,1111122 
SCCF RECON,ioos:station:SCCF:18:1,2013-02-10T10:00:00Z,26.6955,-81.8138,1.77,3.1,1111122 
SCCF RECON,ioos:station:SCCF:18:1,2013-02-10T11:00:00Z,26.6955,-81.8138,1.69,2.81,1111122 
SCCF RECON,ioos:station:SCCF:18:1,2013-02-10T12:00:00Z,26.6955,-81.8138,1.64,3.25,1111122 
SCCF RECON,ioos:station:SCCF:18:1,2013-02-10T13:00:00Z,26.6955,-81.8138,1.6,2.73,1111122 
SCCF RECON,ioos:station:SCCF:18:1,2013-02-10T14:00:00Z,26.6955,-81.8138,1.55,2.61,1111122 
SCCF RECON,ioos:station:SCCF:18:1,2013-02-10T15:00:00Z,26.6955,-81.8138,1.49,2.59,1111122 
SCCF RECON,ioos:station:SCCF:18:1,2013-02-10T16:00:00Z,26.6955,-81.8138,1.449,2.49,1111122 
SCCF RECON,ioos:station:SCCF:18:1,2013-02-10T17:00:00Z,26.6955,-81.8138,1.43,2.47,1111122 
SCCF RECON,ioos:station:SCCF:18:1,2013-02-10T18:00:00Z,26.6955,-81.8138,1.481,2.63,1111122 
SCCF RECON,ioos:station:SCCF:18:1,2013-02-10T19:00:00Z,26.6955,-81.8138,1.553,2.68,1111122 
SCCF RECON,ioos:station:SCCF:18:1,2013-02-10T20:00:00Z,26.6955,-81.8138,1.603,2.64,1111122 
SCCF RECON,ioos:station:SCCF:18:1,2013-02-10T21:00:00Z,26.6955,-81.8138,1.63,2.72,1111122 
SCCF RECON,ioos:station:SCCF:18:1,2013-02-10T22:00:00Z,26.6955,-81.8138,1.66,2.64,1111122 
SCCF RECON,ioos:station:SCCF:18:1,2013-02-10T23:00:00Z,26.6955,-81.8138,1.64,2.53,1111122 
SCCF RECON,ioos:station:SCCF:18:1,2013-02-11T00:00:00Z,26.6955,-81.8138,1.593,2.56,1111122 
SCCF RECON,ioos:station:SCCF:18:1,2013-02-11T01:00:00Z,26.6955,-81.8138,1.54,2.36,1111122 
SCCF RECON,ioos:station:SCCF:18:1,2013-02-11T02:00:00Z,26.6955,-81.8138,1.511,2.36,1111122 
SCCF RECON,ioos:station:SCCF:18:1,2013-02-11T03:00:00Z,26.6955,-81.8138,1.5,2.35,1111122 
SCCF RECON,ioos:station:SCCF:18:1,2013-02-11T04:00:00Z,26.6955,-81.8138,1.5,2.3,1111122 
SCCF RECON,ioos:station:SCCF:18:1,2013-02-11T05:00:00Z,26.6955,-81.8138,1.586,2.75,1111122 
SCCF RECON,ioos:station:SCCF:18:1,2013-02-11T06:00:00Z,26.6955,-81.8138,1.67,2.86,1111122 
SCCF RECON,ioos:station:SCCF:18:1,2013-02-11T07:00:00Z,26.6955,-81.8138,1.73,2.61,1111122 
SCCF RECON,ioos:station:SCCF:18:1,2013-02-11T08:00:00Z,26.6955,-81.8138,1.78,3.19,1111122 
SCCF RECON,ioos:station:SCCF:18:1,2013-02-11T09:00:00Z,26.6955,-81.8138,1.84,3.06,1111122 
SCCF RECON,ioos:station:SCCF:18:1,2013-02-11T10:00:00Z,26.6955,-81.8138,1.85,2.78,1111122 
SCCF RECON,ioos:station:SCCF:18:1,2013-02-11T11:00:00Z,26.6955,-81.8138,1.79,2.49,1111122 
SCCF RECON,ioos:station:SCCF:18:1,2013-02-11T12:00:00Z,26.6955,-81.8138,1.714,2.36,1111122 
SCCF RECON,ioos:station:SCCF:18:1,2013-02-11T13:00:00Z,26.6955,-81.8138,1.66,2.42,1111122 
SCCF RECON,ioos:station:SCCF:18:1,2013-02-11T14:00:00Z,26.6955,-81.8138,1.62,2.39,1111122 
SCCF RECON,ioos:station:SCCF:18:1,2013-02-11T15:00:00Z,26.6955,-81.8138,1.577,2.31,1111122 
SCCF RECON,ioos:station:SCCF:18:1,2013-02-11T16:00:00Z,26.6955,-81.8138,1.53,2.26,1111122 
SCCF RECON,ioos:station:SCCF:18:1,2013-02-11T17:00:00Z,26.6955,-81.8138,1.51,2.28,1111122 
SCCF RECON,ioos:station:SCCF:18:1,2013-02-11T18:00:00Z,26.6955,-81.8138,1.58,2.54,1111122 
SCCF RECON,ioos:station:SCCF:18:1,2013-02-11T19:00:00Z,26.6955,-81.8138,1.67,2.73,1111122 
SCCF RECON,ioos:station:SCCF:18:1,2013-02-11T20:00:00Z,26.6955,-81.8138,1.74,2.99,1111122 
SCCF RECON,ioos:station:SCCF:18:1,2013-02-11T21:00:00Z,26.6955,-81.8138,1.78,3.14,1111122 